Regional Weather Roundup
Issued by NWS

Home | Current Version | Previous Version | Graphics & Text | Print | Product List | Glossary On
Versions: 1 2 3 4 5 6 7 8 9 10 11 12 13 14 15 16 17 18 19 20 21 22 23 24 25 26 27 28 29 30 31 32 33 34 35 36 37 38 39 40 41 42 43 44 45 46 47 48 49 50
000
ASUS43 KLOT 011758
RWRIL

ILLINOIS REGIONAL WEATHER ROUNDUP
NATIONAL WEATHER SERVICE CHICAGO/ROMEOVILLE IL
100 PM CDT WED OCT 01 2014

NOTE: "FAIR" INDICATES FEW OR NO CLOUDS BELOW 12,000 FEET WITH NO
SIGNIFICANT WEATHER AND/OR OBSTRUCTIONS TO VISIBILITY.

* THESE STATIONS ARE NOT UNDER NWS QUALITY CONTROL. THEY ALSO MAY NOT
  REPORT WEATHER SUCH AS PRECIPITATION OR FOG.

ILZ001-002-007-009-015-016-024-011900-
NORTHWEST ILLINOIS

CITY           SKY/WX    TMP DP  RH WIND       PRES   REMARKS
MOLINE         NOT AVBL
$$

ILZ003-004-008-010-011-017-018-011900-
NORTH CENTRAL ILLINOIS

CITY           SKY/WX    TMP DP  RH WIND       PRES   REMARKS
ROCKFORD       NOT AVBL
$$

ILZ005-006-012>014-019>023-011900-
NORTHEAST ILLINOIS

CITY           SKY/WX    TMP DP  RH WIND       PRES   REMARKS
CHICAGO-OHARE  MOSUNNY   65  49  56 S8        29.98F
6HR MIN TEMP:  50; 6HR MAX TEMP:  65;

CHICAGO-MIDWAY NOT AVBL
AURORA         MOSUNNY   69  52  54 E13       29.97F
6HR MIN TEMP:  49; 6HR MAX TEMP:  69;

WAUKEGAN       SUNNY     59  50  72 SE15      29.99S
6HR MIN TEMP:  55; 6HR MAX TEMP:  60;

DUPAGE AIRPORT SUNNY     68  51  54 SE9       29.97F
6HR MIN TEMP:  49; 6HR MAX TEMP:  68;

WHEELING       SUNNY     67  50  54 SE8       29.99F
6HR MIN TEMP:  55; 6HR MAX TEMP:  67;

NORTHERLY ISL    N/A     62  52  69 E12         N/A
$$

LMZ740>746-011900-
SOUTHERN LAKE MICHIGAN

STATION/POSITION SKY/WX   TEMP    WIND        PRES    VSBY  WAVE
                          AIR SEA DIR/SP/G                  HT/PER
                          (F)     (DEG/KT/KT) (MB)    (MI)  (FT/S)
SOUTHERN BUOY              57 61  130/ 10/ 12 1017.1F         1/ 3
WAUKEGAN HARBOR            60     140/ 14/ 17   N/A
HARRISON CRIB              58     130/ 12/ 14   N/A
BURNHAM HARBOR             62     110/  9/ 11   N/A
CALUMET HARBOR             63      80/  6/  9 1014.6F
MICHIGAN CITY              61     110/  8/ 11   N/A
MICHIGAN CITY 6N           62 64  150/  6/  8   N/A           1/ 2
ST. JOSEPH                 60 63  120/  8/ 12   N/A           1/ 2
$$

ILZ025>027-034>036-040-047-049-050-058-095>099-011900-
WEST-CENTRAL ILLINOIS

CITY           SKY/WX    TMP DP  RH WIND       PRES   REMARKS
QUINCY         RAIN      63  60  90 E7        29.88F FOG
$$

ILZ028>032-037-038-041>044-048-051>054-059>061-011900-
CENTRAL ILLINOIS

CITY           SKY/WX    TMP DP  RH WIND       PRES   REMARKS
PEORIA         FAIR      77  59  53 SE8       29.91F
6HR MIN TEMP:  54; 6HR MAX TEMP:  77;

SPRINGFIELD    FAIR      81  60  48 SE7       29.90F HX  82
6HR MIN TEMP:  53; 6HR MAX TEMP:  81;

TAYLORVILLE    NOT AVBL
$$

ILZ033-039-045-046-055>057-062-063-011900-
EAST-CENTRAL ILLINOIS

CITY           SKY/WX    TMP DP  RH WIND       PRES   REMARKS
MATTOON        FAIR      79  59  50 VRB6      29.94F HX  80
$$

ILZ079-100>102-011900-
SOUTHWEST ILLINOIS

CITY           SKY/WX    TMP DP  RH WIND       PRES   REMARKS
ALTON          MOSUNNY   82  55  39 S14       29.89F HX  82
CAHOKIA*       PTSUNNY   85  61  44 S7        29.88F HX  85
$$

ILZ064>066-069>071-074>076-080>082-084>086-088>090-092>094-011900-
SOUTH-CENTRAL ILLINOIS

CITY           SKY/WX    TMP DP  RH WIND       PRES   REMARKS
CARBONDALE     FAIR      84  62  47 S13       29.92F HX  85
6HR MIN TEMP:  54; 6HR MAX TEMP:  84;

MARION         MOSUNNY   86  61  42 S9        29.93F HX  86
$$

ILZ067-068-072-073-078-083-087-091-011900-
SOUTHEAST ILLINOIS

CITY           SKY/WX    TMP DP  RH WIND       PRES   REMARKS
$$

ABBREVIATIONS USED IN REMARKS
   TC - TEMPERATURE IN CELSIUS
  WCI - WIND CHILL INDEX
   HX - HEAT INDEX
  VSB - VISIBILITY
$$




USA.gov is the U.S. government's official web portal to all federal, state and local government web resources and services.